Time,TemperatureF,DewpointF,PressureIn,WindDirection,WindDirectionDegrees,WindSpeedMPH,WindSpeedGustMPH,Humidity,HourlyPrecipIn,Conditions,Clouds,dailyrainin,SoftwareType,DateUTC
2013-03-20 00:03:00,15.0,-99.9,-100.00,NNW,338,3.0,12.0,-999,0.00,,,0.02,,2013-03-20 05:03:00,
2013-03-20 00:13:00,15.0,-99.9,-100.00,NNW,338,3.0,12.0,-999,0.00,,,0.02,,2013-03-20 05:13:00,
2013-03-20 00:23:00,15.0,-99.9,-100.00,NNW,338,3.0,12.0,-999,0.00,,,0.02,,2013-03-20 05:23:00,
2013-03-20 00:33:00,14.0,-99.9,-100.00,NW,315,2.0,12.0,-999,0.00,,,0.02,,2013-03-20 05:33:00,
2013-03-20 00:43:00,14.0,-99.9,-100.00,NW,315,2.0,12.0,-999,0.00,,,0.02,,2013-03-20 05:43:00,
2013-03-20 00:53:00,14.0,-99.9,-100.00,NW,315,7.0,17.0,-999,0.00,,,0.02,,2013-03-20 05:53:00,
2013-03-20 01:03:00,13.0,-99.9,-100.00,NW,315,6.0,17.0,-999,0.00,,,0.02,,2013-03-20 06:03:00,
2013-03-20 01:13:00,13.0,-99.9,-100.00,NW,315,6.0,17.0,-999,0.00,,,0.02,,2013-03-20 06:13:00,
2013-03-20 01:22:00,13.0,-99.9,-100.00,NW,315,6.0,15.0,-999,0.00,,,0.02,,2013-03-20 06:22:00,
2013-03-20 01:32:00,13.0,-99.9,-100.00,NW,315,3.0,15.0,-999,0.00,,,0.02,,2013-03-20 06:32:00,
2013-03-20 01:43:00,13.0,-99.9,-100.00,NW,315,3.0,15.0,-999,0.00,,,0.02,,2013-03-20 06:43:00,
2013-03-20 01:53:00,12.0,-99.9,-100.00,WNW,293,2.0,8.0,-999,0.00,,,0.02,,2013-03-20 06:53:00,
2013-03-20 02:02:00,12.0,-99.9,-100.00,NW,315,3.0,7.0,-999,0.00,,,0.02,,2013-03-20 07:02:00,
2013-03-20 02:12:00,12.0,-99.9,-100.00,NW,315,3.0,7.0,-999,0.00,,,0.02,,2013-03-20 07:12:00,
2013-03-20 02:22:00,11.0,-99.9,-100.00,NNW,338,1.0,7.0,-999,0.00,,,0.02,,2013-03-20 07:22:00,
2013-03-20 02:32:00,11.0,-99.9,-100.00,WNW,293,3.0,13.0,-999,0.00,,,0.02,,2013-03-20 07:32:00,
2013-03-20 02:42:00,11.0,-99.9,-100.00,WNW,293,3.0,13.0,-999,0.00,,,0.02,,2013-03-20 07:42:00,
2013-03-20 02:52:00,11.0,-99.9,-100.00,NW,315,2.0,13.0,-999,0.00,,,0.02,,2013-03-20 07:52:00,
2013-03-20 03:03:00,11.0,-99.9,-100.00,WNW,293,2.0,17.0,-999,0.00,,,0.02,,2013-03-20 08:03:00,
2013-03-20 03:13:00,11.0,-99.9,-100.00,WNW,293,2.0,17.0,-999,0.00,,,0.02,,2013-03-20 08:13:00,
2013-03-20 03:22:00,11.0,-99.9,-100.00,WNW,293,2.0,17.0,-999,0.00,,,0.02,,2013-03-20 08:22:00,
2013-03-20 03:32:00,9.0,-99.9,-100.00,NW,315,7.0,14.0,-999,0.00,,,0.02,,2013-03-20 08:32:00,
2013-03-20 03:43:00,9.0,-99.9,-100.00,NW,315,7.0,14.0,-999,0.00,,,0.02,,2013-03-20 08:43:00,
2013-03-20 03:52:00,9.0,-99.9,-100.00,WNW,293,2.0,13.0,-999,0.00,,,0.01,,2013-03-20 08:52:00,
2013-03-20 04:02:00,9.0,-99.9,-100.00,WNW,293,2.0,13.0,-999,0.00,,,0.01,,2013-03-20 09:02:00,
2013-03-20 04:12:00,9.0,-99.9,-100.00,WNW,293,2.0,13.0,-999,0.00,,,0.01,,2013-03-20 09:12:00,
2013-03-20 04:23:00,8.0,-99.9,-100.00,NW,315,2.0,17.0,-999,0.00,,,0.01,,2013-03-20 09:23:00,
2013-03-20 04:33:00,7.0,-99.9,-100.00,WNW,293,1.0,12.0,-999,0.00,,,0.01,,2013-03-20 09:33:00,
2013-03-20 04:43:00,7.0,-99.9,-100.00,WNW,293,1.0,12.0,-999,0.00,,,0.01,,2013-03-20 09:43:00,
2013-03-20 04:53:00,7.0,-99.9,-100.00,NW,315,2.0,15.0,-999,0.00,,,0.01,,2013-03-20 09:53:00,
2013-03-20 05:03:00,7.0,-99.9,-100.00,WNW,293,3.0,15.0,-999,0.00,,,0.01,,2013-03-20 10:03:00,
2013-03-20 05:13:00,7.0,-99.9,-100.00,WNW,293,3.0,15.0,-999,0.00,,,0.01,,2013-03-20 10:13:00,
2013-03-20 05:23:00,6.0,-99.9,-100.00,WNW,293,5.0,18.0,-999,0.00,,,0.01,,2013-03-20 10:23:00,
2013-03-20 05:33:00,6.0,-99.9,-100.00,NW,315,3.0,14.0,-999,0.00,,,0.01,,2013-03-20 10:33:00,
2013-03-20 05:43:00,6.0,-99.9,-100.00,NW,315,3.0,14.0,-999,0.00,,,0.01,,2013-03-20 10:43:00,
2013-03-20 05:53:00,6.0,-99.9,-100.00,WNW,293,2.0,12.0,-999,0.00,,,0.00,,2013-03-20 10:53:00,
2013-03-20 06:03:00,5.0,-99.9,-100.00,WNW,293,3.0,12.0,-999,0.00,,,0.00,,2013-03-20 11:03:00,
2013-03-20 06:12:00,5.0,-99.9,-100.00,WNW,293,3.0,12.0,-999,0.00,,,0.00,,2013-03-20 11:12:00,
2013-03-20 06:23:00,5.0,-99.9,-100.00,NW,315,6.0,15.0,-999,0.00,,,0.00,,2013-03-20 11:23:00,
2013-03-20 06:33:00,5.0,-99.9,-100.00,NW,315,2.0,9.0,-999,0.00,,,0.00,,2013-03-20 11:33:00,
2013-03-20 06:43:00,5.0,-99.9,-100.00,NW,315,2.0,9.0,-999,0.00,,,0.00,,2013-03-20 11:43:00,
2013-03-20 06:52:00,5.0,-99.9,-100.00,NW,315,3.0,9.0,-999,0.00,,,0.00,,2013-03-20 11:52:00,
2013-03-20 07:02:00,4.0,-99.9,-100.00,WNW,293,2.0,12.0,-999,0.00,,,0.00,,2013-03-20 12:02:00,
2013-03-20 07:13:00,4.0,-99.9,-100.00,WNW,293,2.0,12.0,-999,0.00,,,0.00,,2013-03-20 12:13:00,
2013-03-20 07:22:00,4.0,-99.9,-100.00,NW,315,2.0,13.0,-999,0.00,,,0.00,,2013-03-20 12:22:00,
2013-03-20 07:33:00,4.0,-99.9,-100.00,NW,315,2.0,13.0,-999,0.00,,,0.00,,2013-03-20 12:33:00,
2013-03-20 07:43:00,4.0,-99.9,-100.00,NW,315,2.0,13.0,-999,0.00,,,0.00,,2013-03-20 12:43:00,
2013-03-20 07:53:00,4.0,-99.9,-100.00,NW,315,2.0,13.0,-999,0.00,,,0.00,,2013-03-20 12:53:00,
2013-03-20 08:03:00,5.0,-99.9,-100.00,WNW,293,2.0,10.0,-999,0.00,,,0.00,,2013-03-20 13:03:00,
2013-03-20 08:13:00,5.0,-99.9,-100.00,WNW,293,2.0,10.0,-999,0.00,,,0.00,,2013-03-20 13:13:00,
2013-03-20 08:22:00,5.0,-99.9,-100.00,NW,315,5.0,12.0,-999,0.00,,,0.00,,2013-03-20 13:22:00,
2013-03-20 08:32:00,6.0,-99.9,-100.00,NW,315,1.0,16.0,-999,0.00,,,0.00,,2013-03-20 13:32:00,
2013-03-20 08:43:00,6.0,-99.9,-100.00,NW,315,1.0,16.0,-999,0.00,,,0.00,,2013-03-20 13:43:00,
2013-03-20 08:53:00,7.0,-99.9,-100.00,NW,315,2.0,12.0,-999,0.00,,,0.00,,2013-03-20 13:53:00,
2013-03-20 09:03:00,8.0,-99.9,-100.00,NW,315,5.0,14.0,-999,0.00,,,0.00,,2013-03-20 14:03:00,
2013-03-20 09:12:00,8.0,-99.9,-100.00,NW,315,5.0,14.0,-999,0.00,,,0.00,,2013-03-20 14:12:00,
2013-03-20 09:23:00,8.0,-99.9,-100.00,NW,315,3.0,17.0,-999,0.00,,,0.00,,2013-03-20 14:23:00,
2013-03-20 09:34:00,9.0,-99.9,-100.00,NW,315,5.0,12.0,-999,0.00,,,0.00,,2013-03-20 14:34:00,
2013-03-20 09:43:00,9.0,-99.9,-100.00,NW,315,5.0,12.0,-999,0.00,,,0.00,,2013-03-20 14:43:00,
2013-03-20 09:53:00,11.0,-99.9,-100.00,WNW,293,5.0,14.0,-999,0.00,,,0.00,,2013-03-20 14:53:00,
2013-03-20 10:03:00,12.0,-99.9,-100.00,WNW,293,3.0,14.0,-999,0.00,,,0.00,,2013-03-20 15:03:00,
2013-03-20 10:13:00,12.0,-99.9,-100.00,NNW,338,3.0,14.0,-999,0.00,,,0.00,,2013-03-20 15:13:00,
2013-03-20 10:22:00,12.0,-99.9,-100.00,NNW,338,3.0,14.0,-999,0.00,,,0.00,,2013-03-20 15:22:00,
2013-03-20 10:34:00,13.0,-99.9,-100.00,NNW,338,2.0,12.0,-999,0.00,,,0.00,,2013-03-20 15:34:00,
2013-03-20 10:44:00,13.0,-99.9,-100.00,NNW,338,2.0,12.0,-999,0.00,,,0.00,,2013-03-20 15:44:00,
2013-03-20 10:53:00,15.0,-99.9,-100.00,NW,315,8.0,15.0,-999,0.00,,,0.00,,2013-03-20 15:53:00,
2013-03-20 11:03:00,16.0,-99.9,-100.00,NNW,338,5.0,17.0,-999,0.00,,,0.00,,2013-03-20 16:03:00,
2013-03-20 11:13:00,16.0,-99.9,-100.00,NNW,338,5.0,17.0,-999,0.00,,,0.00,,2013-03-20 16:13:00,
2013-03-20 11:24:00,17.0,-99.9,-100.00,NNW,338,5.0,13.0,-999,0.00,,,0.00,,2013-03-20 16:24:00,
2013-03-20 11:33:00,17.0,-99.9,-100.00,North,0,2.0,16.0,-999,0.00,,,0.00,,2013-03-20 16:33:00,
2013-03-20 11:43:00,17.0,-99.9,-100.00,North,0,2.0,16.0,-999,0.00,,,0.00,,2013-03-20 16:43:00,
2013-03-20 11:53:00,19.0,-99.9,-100.00,NNW,338,3.0,17.0,-999,0.00,,,0.00,,2013-03-20 16:53:00,
2013-03-20 12:03:00,19.0,-99.9,-100.00,NNW,338,6.0,15.0,-999,0.00,,,0.00,,2013-03-20 17:03:00,
2013-03-20 12:12:00,19.0,-99.9,-100.00,NNW,338,6.0,15.0,-999,0.00,,,0.00,,2013-03-20 17:12:00,
2013-03-20 12:22:00,20.0,-99.9,-100.00,NNW,338,6.0,12.0,-999,0.00,,,0.00,,2013-03-20 17:22:00,
2013-03-20 12:33:00,20.0,-99.9,-100.00,NNW,338,5.0,12.0,-999,0.00,,,0.00,,2013-03-20 17:33:00,
2013-03-20 12:43:00,20.0,-99.9,-100.00,NNW,338,5.0,12.0,-999,0.00,,,0.00,,2013-03-20 17:43:00,
2013-03-20 12:53:00,22.0,-99.9,-100.00,NNW,338,3.0,9.0,-999,0.00,,,0.00,,2013-03-20 17:53:00,
2013-03-20 13:03:00,20.0,-99.9,-100.00,NNW,338,3.0,14.0,-999,0.00,,,0.00,,2013-03-20 18:03:00,
2013-03-20 13:12:00,20.0,-99.9,-100.00,NNW,338,3.0,14.0,-999,0.00,,,0.00,,2013-03-20 18:12:00,
2013-03-20 13:22:00,22.0,-99.9,-100.00,NW,315,3.0,10.0,-999,0.00,,,0.00,,2013-03-20 18:22:00,
2013-03-20 13:34:00,21.0,-99.9,-100.00,NNW,338,5.0,15.0,-999,0.00,,,0.00,,2013-03-20 18:34:00,
2013-03-20 13:40:00,20.0,-99.9,-100.00,North,0,2.0,9.0,-999,0.00,,,0.00,,2013-03-20 18:40:00,
2013-03-20 13:43:00,21.0,-99.9,-100.00,NNW,338,5.0,15.0,-999,0.00,,,0.00,,2013-03-20 18:43:00,
2013-03-20 13:53:00,21.0,-99.9,-100.00,NNW,338,5.0,10.0,-999,0.00,,,0.00,,2013-03-20 18:53:00,
2013-03-20 14:02:00,20.0,-99.9,-100.00,North,0,2.0,9.0,-999,0.00,,,0.00,,2013-03-20 19:02:00,
2013-03-20 14:12:00,20.0,-99.9,-100.00,North,0,2.0,9.0,-999,0.00,,,0.00,,2013-03-20 19:12:00,
2013-03-20 14:23:00,20.0,-99.9,-100.00,North,0,2.0,9.0,-999,0.00,,,0.00,,2013-03-20 19:23:00,
2013-03-20 14:33:00,20.0,-99.9,-100.00,North,0,2.0,9.0,-999,0.00,,,0.00,,2013-03-20 19:33:00,
2013-03-20 14:53:00,22.0,-99.9,-100.00,North,0,2.0,8.0,-999,0.00,,,0.00,,2013-03-20 19:53:00,
2013-03-20 15:02:00,21.0,-99.9,-100.00,NW,315,6.0,12.0,-999,0.00,,,0.00,,2013-03-20 20:02:00,
2013-03-20 15:13:00,21.0,-99.9,-100.00,NW,315,6.0,12.0,-999,0.00,,,0.00,,2013-03-20 20:13:00,
2013-03-20 15:23:00,21.0,-99.9,-100.00,NNW,338,3.0,10.0,-999,0.00,,,0.00,,2013-03-20 20:23:00,
2013-03-20 15:32:00,21.0,-99.9,-100.00,NNW,338,5.0,12.0,-999,0.00,,,0.00,,2013-03-20 20:32:00,
2013-03-20 15:43:00,21.0,-99.9,-100.00,NNW,338,5.0,12.0,-999,0.00,,,0.00,,2013-03-20 20:43:00,
2013-03-20 15:53:00,20.0,-99.9,-100.00,NNW,338,5.0,9.0,-999,0.00,,,0.00,,2013-03-20 20:53:00,
2013-03-20 16:02:00,20.0,-99.9,-100.00,NNW,338,2.0,12.0,-999,0.00,,,0.00,,2013-03-20 21:02:00,
2013-03-20 16:12:00,20.0,-99.9,-100.00,NNW,338,2.0,12.0,-999,0.00,,,0.00,,2013-03-20 21:12:00,
2013-03-20 16:23:00,21.0,-99.9,-100.00,NNW,338,2.0,10.0,-999,0.00,,,0.00,,2013-03-20 21:23:00,
2013-03-20 16:33:00,21.0,-99.9,-100.00,NNW,338,5.0,12.0,-999,0.00,,,0.00,,2013-03-20 21:33:00,
2013-03-20 16:42:00,21.0,-99.9,-100.00,NNW,338,5.0,12.0,-999,0.00,,,0.00,,2013-03-20 21:42:00,
2013-03-20 16:53:00,20.0,-99.9,-100.00,NNW,338,5.0,10.0,-999,0.00,,,0.00,,2013-03-20 21:53:00,
2013-03-20 17:03:00,19.0,-99.9,-100.00,NW,315,3.0,12.0,-999,0.00,,,0.00,,2013-03-20 22:03:00,
2013-03-20 17:13:00,19.0,-99.9,-100.00,NW,315,3.0,12.0,-999,0.00,,,0.00,,2013-03-20 22:13:00,
2013-03-20 17:23:00,19.0,-99.9,-100.00,NNW,338,5.0,10.0,-999,0.00,,,0.00,,2013-03-20 22:23:00,
2013-03-20 17:33:00,19.0,-99.9,-100.00,NNW,338,6.0,15.0,-999,0.00,,,0.00,,2013-03-20 22:33:00,
2013-03-20 17:43:00,19.0,-99.9,-100.00,NNW,338,6.0,15.0,-999,0.00,,,0.00,,2013-03-20 22:43:00,
2013-03-20 17:53:00,18.0,-99.9,-100.00,NNW,338,6.0,10.0,-999,0.00,,,0.00,,2013-03-20 22:53:00,
2013-03-20 18:03:00,17.0,-99.9,-100.00,NW,315,1.0,10.0,-999,0.00,,,0.00,,2013-03-20 23:03:00,
2013-03-20 18:12:00,17.0,-99.9,-100.00,NW,315,1.0,10.0,-999,0.00,,,0.00,,2013-03-20 23:12:00,
2013-03-20 18:23:00,17.0,-99.9,-100.00,North,0,1.0,9.0,-999,0.00,,,0.00,,2013-03-20 23:23:00,
2013-03-20 18:33:00,17.0,-99.9,-100.00,NNW,338,1.0,10.0,-999,0.00,,,0.00,,2013-03-20 23:33:00,
2013-03-20 18:43:00,17.0,-99.9,-100.00,NNW,338,1.0,10.0,-999,0.00,,,0.00,,2013-03-20 23:43:00,
2013-03-20 18:53:00,17.0,-99.9,-100.00,NNW,338,3.0,10.0,-999,0.00,,,0.00,,2013-03-20 23:53:00,
2013-03-20 19:03:00,16.0,-99.9,-100.00,NNW,338,3.0,7.0,-999,0.00,,,0.00,,2013-03-21 00:03:00,
2013-03-20 19:13:00,16.0,-99.9,-100.00,NNW,338,3.0,7.0,-999,0.00,,,0.00,,2013-03-21 00:13:00,
2013-03-20 19:23:00,16.0,-99.9,-100.00,NNW,338,2.0,10.0,-999,0.00,,,0.00,,2013-03-21 00:23:00,
2013-03-20 19:33:00,15.0,-99.9,-100.00,NNW,338,2.0,8.0,-999,0.00,,,0.00,,2013-03-21 00:33:00,
2013-03-20 19:43:00,15.0,-99.9,-100.00,NNW,338,2.0,8.0,-999,0.00,,,0.00,,2013-03-21 00:43:00,
2013-03-20 19:53:00,15.0,-99.9,-100.00,NNW,338,5.0,9.0,-999,0.00,,,0.00,,2013-03-21 00:53:00,
2013-03-20 20:03:00,15.0,-99.9,-100.00,NW,315,5.0,12.0,-999,0.00,,,0.00,,2013-03-21 01:03:00,
2013-03-20 20:12:00,15.0,-99.9,-100.00,NW,315,5.0,12.0,-999,0.00,,,0.00,,2013-03-21 01:12:00,
2013-03-20 20:22:00,15.0,-99.9,-100.00,NW,315,3.0,9.0,-999,0.00,,,0.00,,2013-03-21 01:22:00,
2013-03-20 20:33:00,15.0,-99.9,-100.00,NW,315,3.0,9.0,-999,0.00,,,0.00,,2013-03-21 01:33:00,
2013-03-20 20:43:00,15.0,-99.9,-100.00,NW,315,3.0,9.0,-999,0.00,,,0.00,,2013-03-21 01:43:00,
2013-03-20 20:53:00,15.0,-99.9,-100.00,NW,315,1.0,10.0,-999,0.00,,,0.00,,2013-03-21 01:53:00,
2013-03-20 21:03:00,15.0,-99.9,-100.00,NW,315,1.0,10.0,-999,0.00,,,0.00,,2013-03-21 02:03:00,
2013-03-20 21:13:00,15.0,-99.9,-100.00,NW,315,1.0,10.0,-999,0.00,,,0.00,,2013-03-21 02:13:00,
2013-03-20 21:23:00,15.0,-99.9,-100.00,NW,315,1.0,10.0,-999,0.00,,,0.00,,2013-03-21 02:23:00,
2013-03-20 21:33:00,14.0,-99.9,-100.00,NW,315,1.0,7.0,-999,0.00,,,0.00,,2013-03-21 02:33:00,
2013-03-20 21:42:00,14.0,-99.9,-100.00,NW,315,1.0,7.0,-999,0.00,,,0.00,,2013-03-21 02:42:00,
2013-03-20 21:52:00,14.0,-99.9,-100.00,NW,315,1.0,7.0,-999,0.00,,,0.00,,2013-03-21 02:52:00,
2013-03-20 22:03:00,14.0,-99.9,-100.00,NW,315,3.0,10.0,-999,0.00,,,0.00,,2013-03-21 03:03:00,
2013-03-20 22:12:00,14.0,-99.9,-100.00,NW,315,3.0,10.0,-999,0.00,,,0.00,,2013-03-21 03:12:00,
2013-03-20 22:22:00,14.0,-99.9,-100.00,NW,315,3.0,8.0,-999,0.00,,,0.00,,2013-03-21 03:22:00,
2013-03-20 22:33:00,14.0,-99.9,-100.00,NW,315,1.0,8.0,-999,0.00,,,0.00,,2013-03-21 03:33:00,
2013-03-20 22:43:00,14.0,-99.9,-100.00,NW,315,1.0,8.0,-999,0.00,,,0.00,,2013-03-21 03:43:00,
2013-03-20 22:53:00,14.0,-99.9,-100.00,NW,315,1.0,9.0,-999,0.00,,,0.00,,2013-03-21 03:53:00,
2013-03-20 23:03:00,14.0,-99.9,-100.00,NNW,338,3.0,10.0,-999,0.00,,,0.00,,2013-03-21 04:03:00,
2013-03-20 23:13:00,14.0,-99.9,-100.00,NNW,338,3.0,10.0,-999,0.00,,,0.00,,2013-03-21 04:13:00,
2013-03-20 23:23:00,14.0,-99.9,-100.00,NNW,338,2.0,10.0,-999,0.00,,,0.00,,2013-03-21 04:23:00,
2013-03-20 23:33:00,14.0,-99.9,-100.00,NW,315,1.0,8.0,-999,0.00,,,0.00,,2013-03-21 04:33:00,
2013-03-20 23:43:00,14.0,-99.9,-100.00,NW,315,1.0,8.0,-999,0.00,,,0.00,,2013-03-21 04:43:00,
2013-03-20 23:53:00,14.0,-99.9,-100.00,NW,315,3.0,7.0,-999,0.00,,,0.00,,2013-03-21 04:53:00,